COSMOS 1275 DEB, 12672

Orbit data source: Space-Track

COSMOS 1275 DEB, 12672 is space debris in LEO originally from a launch on Thu, 04 Jun 1981 UTC launched from the Plesetsk Missile And Space Complex (PKMTR). Debris objects in space refer to the collection of defunct objects orbiting the Earth. Examples of debris include non-operational satellites, rocket bodies, and fragments generated from explosions, collisions, or faulty payload assembly.

Loading next visibility...
Identifier
12672, 1981-053AC
Orbit
LEO
Last TLE update
19 hours ago
Origin
Manufacturer
Unknown
Mission
Spacecraft
Bus & Motor
Unknown
Mass
Unknown
Launch date (UTC)
1981-06-04 (44 years ago)
Launch vehicle
Unknown
Launch site
Plesetsk Missile And Space Complex (PKMTR)
Object type
Payload
Rocket body
Debris
Shape & HBR
Unknown
Radar Cross Section
Medium (>0.1 m² and <1 m²)

Expand to show TLE details & history

TLE from 19 hours ago
0 COSMOS 1275 DEB
1 12672U 81053AC  25166.77257664  .00000394  00000-0  34197-3 0  9992
2 12672  82.9424  85.7566 0024641 215.0602 173.7057 13.83637065207730
Epoch: 2025-06-15T18:32Z
TLE epoch observation values (Epoch: 2025-06-15T18:32:30.621Z)
Latitude
28.60231°
Longitude
-92.81319°
Altitude
972.508 km
Speed
7.359 km/s
True Right ascension
05h 58m 25s
True Declination
28° 27' 44"
Sunlit
Object was in daylight at epoch
Visualization orbit readout
Latitude
-33.00016°
Longitude
-101.83988°
Altitude
970.757 km
Speed
7.362 km/s
Apparent Right ascension
08h 10m 15s
Apparent Declination
-48° 06' 07"
Sunlit
Object is in daylight
Visualization observer readout
Local Sidereal Time
23:59:48
Azimuth
121.146° SE
Elevation
-48.909°
Doppler factor
1
Orbital elements
Apogee altitude
966.204 km
Perigee altitude
930.099 km
Semi-major axis
7,326.289 km
Eccentricity
0.00246
Inclination
82.9424°
RAAN
85.7566°
Arg. of periapsis
215.0602°
True anomaly
Unknown
Mean anomaly
173.7057°
Eccentric anomaly
Unknown
Mean motion
3.46112 °/min
Orbital period
104.01 mins
BSTAR
0.00034197
Loading maneuver chart data...
Loading SW <> Apogee altitude chart data...
Loading historical data...
Loading historical data...
Loading historical data...
Loading historical data...
Loading historical data...
Loading historical data...
Loading historical data...

COSMOS 1275 DEB Visibility forecast

Observer location: undefined°, undefined°

Span
Click to sort rows by Start time (UTC) header in descending order
Start Az.
Max El. time (UTC)
Max El. Az.
Max El.
End time (UTC)
End Az.
11 mins2025-06-16 18:48:01.254Z164.829° S2025-06-16 18:54:01.254Z77.102° E38.067°2025-06-16 18:59:01.254Z18.48° NNE
7 mins2025-06-16 20:36:01.254Z254.543° W2025-06-16 20:39:01.254Z292.392° WNW21.068°2025-06-16 20:43:01.254Z336.05° NNW
9 mins2025-06-17 05:43:01.254Z17.947° NNE2025-06-17 05:47:01.254Z79.186° E31.945°2025-06-17 05:52:01.254Z142.076° SSE
8 mins2025-06-17 07:28:01.254Z320.491° NNW2025-06-17 07:32:01.254Z265.226° W25.569°2025-06-17 07:36:01.254Z219.596° SW
|